[[{"header":{"parameterUnit":"m.s-1","parameterCategory":1,"la1":30.2991,"la2":30.254,"lo1":-89.0895,"lo2":-89.0444,"dy":0.0017,"dx":0.0017,"nx":28,"ny":28,"refTime":"2025-07-30T03:00:00:Z","depth":0,"parameterNumber":2,"parameterNumberName":"U-component_of_WINDS"},"data":[0,0,0,0,0,0,0,0,0,0,0,0,0,0,0,0,0,0,0,0,0,0,0,0,0,0,0,0,0,0,0,0,0,0,0,0,0,0,0,0,0,0,0,0,0,0,0,0,0,0,0,0,0,0,0,0,0,0,1.2257,1.2258,0,1.2343,1.2344,1.2345,1.2328,1.2326,1.2325,1.2323,1.2415,1.2419,1.2423,0,0,0,0,0,0,0,0,0,0,0,0,0,1.2081,1.2084,1.2257,1.2258,1.2259,1.2343,1.2344,1.2345,1.2328,1.2326,1.2324,1.2323,1.2414,1.2418,1.2423,0,0,0,0,0,0,0,0,0,0,0,0,0,1.2161,1.2085,1.2257,1.226,1.2262,1.2342,1.2344,1.2345,1.2329,1.2326,1.2324,1.2322,1.2412,1.2418,1.2424,1.2507,0,0,1.2442,1.2444,0,0,0,0,0,0,0,0,1.2157,1.2168,1.2259,1.226,1.2262,1.2322,1.2315,1.24,1.2329,1.2303,1.2323,1.232,1.2386,1.2394,1.2416,1.2511,1.2515,1.2442,1.2446,1.2448,1.245,0,0,0,0,0,0,0,1.2151,1.2164,1.2291,1.226,1.2262,1.2259,1.2268,1.2331,1.2357,1.2305,1.2304,1.2315,1.2387,1.241,1.2418,1.2517,1.2442,1.2447,1.2451,1.2453,1.2685,1.2688,0,0,0,0,0,0,1.2144,1.2159,1.2288,1.2293,1.2202,1.2264,1.2274,1.2305,1.2356,1.2362,1.2316,1.2313,1.2401,1.2411,1.2421,1.2522,1.2448,1.2454,1.2457,1.2683,1.2686,1.2689,0,0,0,0,0,0,1.214,1.2155,1.2285,1.2226,1.2242,1.227,1.2305,1.2308,1.2331,1.2365,1.2369,1.2335,1.24,1.2413,1.2485,1.2525,1.2456,1.2462,1.2679,1.2684,1.2687,1.2725,0,0,0,0,0,0,1.2135,1.2154,1.2185,1.2227,1.2246,1.2347,1.2307,1.2312,1.2341,1.2338,1.2384,1.2389,1.2399,1.2477,1.2491,1.2532,1.2466,1.2676,1.2681,1.2686,1.272,1.2729,1.2737,0,0,0,0,0,1.2129,1.2193,1.2187,1.2203,1.2285,1.2349,1.236,1.2369,1.2344,1.2376,1.2398,1.2388,1.2518,1.2484,1.2501,1.2543,1.2674,1.268,1.2686,1.2716,1.2728,1.2737,0,0,0,0,0,0,1.2157,1.2199,1.2193,1.2272,1.2307,1.2346,1.2387,1.2381,1.2425,1.242,1.243,1.2441,1.2515,1.2536,1.2498,1.2627,1.2592,1.2602,1.261,1.2621,1.263,1.2623,1.2471,0,0,0,0,0,1.2172,1.222,1.2254,1.2322,1.2339,1.236,1.2389,1.2392,1.243,1.2445,1.2471,1.2509,1.2558,1.2591,1.2638,1.2723,1.2733,1.276,1.2769,1.2776,1.2784,1.2831,1.2843,1.2708,1.2708,1.2708,0,0,1.2205,1.2234,1.2264,1.2328,1.2356,1.2406,1.2373,1.2428,1.2465,1.2453,1.2524,1.2545,1.2587,1.2666,1.2702,1.2686,1.2823,1.2783,1.2788,1.2793,1.2838,1.2851,1.2862,1.2712,1.2712,1.2711,0,0,1.229,1.2316,1.2375,1.2403,1.2445,1.2458,1.2472,1.2512,1.2525,1.2595,1.2588,1.2633,1.2718,1.2748,1.2775,1.2871,1.2863,1.2886,1.2932,1.2977,1.2988,1.2997,1.3032,1.3044,1.2894,1.2894,1.2894,0,1.2326,1.24,1.2406,1.2461,1.249,1.248,1.254,1.2568,1.2623,1.2644,1.2624,1.273,1.2758,1.2844,1.2868,1.2889,1.2907,1.2882,1.2985,1.2995,1.3004,1.3037,1.305,1.2897,1.2897,1.2896,1.2896,0,1.2442,1.2494,1.2536,1.2589,1.2622,1.268,1.2695,1.2729,1.2729,1.2745,1.2817,1.285,1.2904,1.2924,1.2926,1.3011,1.2999,1.2983,1.2949,1.3019,1.3051,1.3064,1.29,1.29,1.2899,1.2898,0,0,1.2549,1.2603,1.2618,1.2642,1.2687,1.2727,1.2784,1.2836,1.2864,1.2903,1.2952,1.3023,1.3008,1.3038,1.3043,1.3082,1.3157,1.3061,1.3062,1.3078,1.3253,1.3265,1.328,1.3151,1.3154,1.3156,1.3249,0,1.2638,1.2738,1.2745,1.2835,1.2883,1.2874,1.2924,1.2957,1.2973,1.3017,1.3035,1.3086,1.3061,1.3079,1.3118,1.3139,1.3192,1.3133,1.3198,1.32,1.3188,1.3296,1.331,1.3397,1.3262,1.3264,1.3265,0,1.2756,1.2797,1.2892,1.2929,1.295,1.2994,1.3042,1.3083,1.3121,1.313,1.3163,1.3163,1.3222,1.3185,1.3268,1.3227,1.3254,1.3269,1.3272,1.3279,1.3238,1.3307,1.3425,1.3438,1.3285,1.3283,1.3282,0,1.2825,1.2904,1.297,1.2991,1.3036,1.3068,1.3089,1.3124,1.3154,1.3196,1.3216,1.3264,1.3291,1.3329,1.3342,1.3313,1.3424,1.3388,1.3434,1.3434,1.3459,1.3457,1.3583,1.3475,1.3475,1.3474,1.3474,0,1.2925,1.2984,1.3002,1.3043,1.3108,1.3116,1.3181,1.32,1.3231,1.3277,1.3272,1.3315,1.3328,1.3374,1.3384,1.3451,1.3463,1.3473,1.3475,1.3474,1.3473,1.3492,1.3487,1.3478,1.3477,1.3476,1.3476,0,1.3014,1.3028,1.31,1.3137,1.3147,1.3194,1.3226,1.3266,1.3281,1.3338,1.3352,1.3376,1.3429,1.3445,1.3509,1.3516,1.3595,1.3591,1.3582,1.3582,1.3628,1.3623,1.3771,1.3791,1.3669,1.367,1.3671,0,1.3077,1.3121,1.3162,1.3192,1.3213,1.3261,1.3291,1.33,1.3333,1.3379,1.3413,1.3465,1.3508,1.3594,1.3617,1.3666,1.3664,1.3713,1.3672,1.3669,1.3666,1.3663,1.3668,1.3721,1.3722,1.3723,1.3724,0,1.3188,1.3192,1.3236,1.3282,1.3318,1.3355,1.339,1.3415,1.3429,1.3466,1.3519,1.3552,1.3617,1.3669,1.3719,1.3741,1.3736,1.3736,1.375,1.3749,1.3742,1.3747,1.3604,1.3733,1.3732,1.3732,1.3731,1.3731,1.3266,1.3305,1.334,1.3388,1.3416,1.3449,1.3488,1.3507,1.3552,1.3604,1.3607,1.3666,1.3702,1.3768,1.3793,1.3839,1.3825,1.3845,1.385,1.3855,1.3858,1.3734,1.3848,1.3848,1.3848,1.3848,1.3848,0,1.3377,1.3398,1.3443,1.3492,1.353,1.352,1.3558,1.3592,1.3643,1.3677,1.3718,1.378,1.383,1.3857,1.3907,1.3939,1.3938,1.3952,1.395,1.3956,1.3868,1.3851,1.3952,1.3952,1.3952,1.3952,1.3952,1.3952,1.3439,1.3505,1.3514,1.3593,1.3614,1.367,1.3693,1.3724,1.3751,1.382,1.3861,1.3878,1.3909,1.3962,1.4008,1.4014,1.4034,1.405,1.4055,1.3973,1.3962,1.3952,1.3936,1.4054,1.4054,1.4139,1.414,1.4141]},{"header":{"parameterUnit":"m.s-1","parameterCategory":1,"la1":30.2991,"la2":30.254,"lo1":-89.0895,"lo2":-89.0444,"dy":0.0017,"dx":0.0017,"nx":28,"ny":28,"refTime":"2025-07-30T03:00:00:Z","depth":0,"parameterNumber":3,"parameterNumberName":"V-component_of_WINDS"},"data":[0,0,0,0,0,0,0,0,0,0,0,0,0,0,0,0,0,0,0,0,0,0,0,0,0,0,0,0,0,0,0,0,0,0,0,0,0,0,0,0,0,0,0,0,0,0,0,0,0,0,0,0,0,0,0,0,0,0,-0.2765,-0.2765,0,-0.2696,-0.2695,-0.2695,-0.2689,-0.2689,-0.269,-0.2691,-0.2616,-0.2614,-0.2611,0,0,0,0,0,0,0,0,0,0,0,0,0,-0.2891,-0.2889,-0.2765,-0.2765,-0.2764,-0.2696,-0.2695,-0.2694,-0.2688,-0.2689,-0.269,-0.2691,-0.2617,-0.2614,-0.2611,0,0,0,0,0,0,0,0,0,0,0,0,0,-0.2831,-0.2888,-0.2766,-0.2753,-0.2751,-0.2697,-0.2695,-0.2694,-0.2688,-0.2689,-0.269,-0.2692,-0.2618,-0.2614,-0.2611,-0.2563,0,0,-0.2598,-0.2597,0,0,0,0,0,0,0,0,-0.2834,-0.2826,-0.2755,-0.2753,-0.2751,-0.2702,-0.2713,-0.265,-0.2688,-0.2712,-0.2691,-0.2692,-0.2644,-0.2638,-0.2622,-0.256,-0.2557,-0.2598,-0.2595,-0.2594,-0.2593,0,0,0,0,0,0,0,-0.2838,-0.2829,-0.2738,-0.2754,-0.2752,-0.275,-0.2743,-0.2701,-0.2672,-0.271,-0.2709,-0.2701,-0.2643,-0.2626,-0.262,-0.2556,-0.2598,-0.2594,-0.2592,-0.259,-0.2454,-0.2453,0,0,0,0,0,0,-0.2845,-0.2833,-0.274,-0.2736,-0.2797,-0.2747,-0.2739,-0.2717,-0.2673,-0.2667,-0.2701,-0.2701,-0.2632,-0.2625,-0.2618,-0.2562,-0.2594,-0.259,-0.2588,-0.2456,-0.2454,-0.2453,0,0,0,0,0,0,-0.2848,-0.2837,-0.2743,-0.2784,-0.2772,-0.2744,-0.2719,-0.2715,-0.2698,-0.2666,-0.266,-0.2689,-0.2633,-0.2623,-0.2578,-0.2559,-0.2588,-0.2585,-0.2457,-0.2455,-0.2454,-0.2448,0,0,0,0,0,0,-0.2852,-0.2838,-0.282,-0.2784,-0.277,-0.2704,-0.2718,-0.2713,-0.2692,-0.2692,-0.2653,-0.2648,-0.2633,-0.2584,-0.2574,-0.2554,-0.2581,-0.2459,-0.2456,-0.2454,-0.245,-0.2446,-0.2444,0,0,0,0,0,-0.2856,-0.282,-0.2819,-0.2808,-0.2747,-0.2703,-0.2695,-0.268,-0.269,-0.2672,-0.2652,-0.2649,-0.2563,-0.2579,-0.2568,-0.2547,-0.246,-0.2457,-0.2454,-0.2451,-0.2447,-0.2444,0,0,0,0,0,0,-0.2852,-0.2815,-0.2813,-0.2764,-0.2737,-0.2702,-0.2678,-0.2676,-0.2644,-0.2646,-0.2627,-0.2619,-0.2574,-0.2556,-0.2575,-0.25,-0.2512,-0.2507,-0.2514,-0.251,-0.2507,-0.2512,-0.2578,0,0,0,0,0,-0.2846,-0.2815,-0.2783,-0.2743,-0.273,-0.2707,-0.2687,-0.2678,-0.2649,-0.2637,-0.2613,-0.2584,-0.2551,-0.2529,-0.2497,-0.2448,-0.244,-0.2428,-0.2424,-0.2422,-0.2418,-0.2393,-0.2388,-0.2444,-0.2444,-0.2444,0,0,-0.2832,-0.2808,-0.2788,-0.2741,-0.2719,-0.2688,-0.2697,-0.2662,-0.2638,-0.2631,-0.2588,-0.257,-0.2536,-0.249,-0.2468,-0.2473,-0.2401,-0.2418,-0.2417,-0.2414,-0.239,-0.2384,-0.238,-0.2442,-0.2442,-0.2443,0,0,-0.279,-0.2768,-0.2734,-0.2712,-0.268,-0.2666,-0.2657,-0.2624,-0.2612,-0.2568,-0.2564,-0.2535,-0.2477,-0.2455,-0.2436,-0.239,-0.2387,-0.238,-0.2363,-0.2339,-0.2334,-0.233,-0.2315,-0.231,-0.2376,-0.2376,-0.2376,0,-0.2776,-0.2729,-0.2716,-0.2682,-0.2662,-0.2657,-0.2623,-0.2602,-0.256,-0.2547,-0.2553,-0.2484,-0.246,-0.241,-0.2399,-0.2383,-0.2374,-0.2384,-0.2336,-0.2332,-0.2328,-0.2314,-0.2308,-0.2375,-0.2375,-0.2375,-0.2375,0,-0.2715,-0.2682,-0.2658,-0.262,-0.2598,-0.2563,-0.2545,-0.2524,-0.2518,-0.2503,-0.246,-0.2433,-0.2396,-0.2383,-0.2376,-0.2332,-0.2337,-0.234,-0.2352,-0.2322,-0.2309,-0.2303,-0.2374,-0.2374,-0.2374,-0.2375,0,0,-0.2667,-0.2625,-0.2616,-0.26,-0.2566,-0.254,-0.2507,-0.2472,-0.2456,-0.2427,-0.2399,-0.2353,-0.2357,-0.2335,-0.2325,-0.2304,-0.2273,-0.231,-0.2309,-0.2305,-0.2225,-0.2223,-0.2217,-0.2271,-0.227,-0.2269,-0.2228,0,-0.2622,-0.2564,-0.2552,-0.2501,-0.2472,-0.2468,-0.2439,-0.2415,-0.2401,-0.2374,-0.2358,-0.2326,-0.2333,-0.232,-0.2299,-0.2281,-0.2256,-0.2283,-0.2245,-0.2244,-0.2254,-0.221,-0.2207,-0.217,-0.2223,-0.2222,-0.2221,0,-0.2562,-0.2536,-0.2482,-0.2455,-0.2442,-0.2416,-0.2386,-0.236,-0.2333,-0.2324,-0.2302,-0.2296,-0.2262,-0.2276,-0.2229,-0.2248,-0.2232,-0.2221,-0.2219,-0.2215,-0.2231,-0.2205,-0.2158,-0.2153,-0.2212,-0.2213,-0.2214,0,-0.2535,-0.2485,-0.2448,-0.2434,-0.24,-0.2383,-0.2368,-0.2342,-0.2324,-0.2297,-0.2285,-0.2253,-0.2236,-0.2213,-0.2198,-0.221,-0.2153,-0.2166,-0.2146,-0.2146,-0.2134,-0.2135,-0.2084,-0.2122,-0.2122,-0.2122,-0.2123,0,-0.2487,-0.2454,-0.2435,-0.2412,-0.2377,-0.2365,-0.233,-0.2315,-0.2293,-0.2267,-0.2261,-0.2237,-0.222,-0.2193,-0.2182,-0.2146,-0.2138,-0.2131,-0.2128,-0.2131,-0.2133,-0.212,-0.2123,-0.2121,-0.2121,-0.2122,-0.2122,0,-0.2449,-0.2435,-0.2394,-0.2367,-0.236,-0.2335,-0.2312,-0.229,-0.2277,-0.2244,-0.2236,-0.2215,-0.2184,-0.2168,-0.2128,-0.2121,-0.2081,-0.208,-0.2091,-0.209,-0.2072,-0.2074,-0.2011,-0.2003,-0.2047,-0.2046,-0.2046,0,-0.242,-0.2396,-0.2367,-0.235,-0.2336,-0.2308,-0.229,-0.2278,-0.2259,-0.2229,-0.221,-0.218,-0.2154,-0.2105,-0.2086,-0.2057,-0.2055,-0.2035,-0.205,-0.2056,-0.2056,-0.2058,-0.2057,-0.2033,-0.2032,-0.2032,-0.2032,0,-0.237,-0.2365,-0.234,-0.2312,-0.2291,-0.2269,-0.2246,-0.2233,-0.2217,-0.2196,-0.2166,-0.2146,-0.2108,-0.2078,-0.2048,-0.2032,-0.203,-0.2027,-0.2021,-0.2025,-0.2033,-0.203,-0.2084,-0.2029,-0.2029,-0.2029,-0.2029,-0.2029,-0.2337,-0.2316,-0.2294,-0.2266,-0.2249,-0.2229,-0.2208,-0.2193,-0.2168,-0.2137,-0.2131,-0.2099,-0.2075,-0.2035,-0.2019,-0.1994,-0.1998,-0.1989,-0.1987,-0.1985,-0.1985,-0.2037,-0.1988,-0.1988,-0.1988,-0.1988,-0.1988,0,-0.2288,-0.2274,-0.2249,-0.2219,-0.2198,-0.22,-0.2176,-0.2158,-0.213,-0.2109,-0.2085,-0.2051,-0.2023,-0.2003,-0.1975,-0.1959,-0.1957,-0.1952,-0.1953,-0.195,-0.1982,-0.1991,-0.1954,-0.1954,-0.1954,-0.1954,-0.1954,-0.1954,-0.226,-0.2226,-0.2219,-0.2177,-0.2163,-0.2133,-0.2119,-0.2101,-0.2085,-0.2048,-0.2025,-0.2013,-0.1993,-0.1963,-0.1938,-0.1933,-0.1923,-0.1918,-0.1913,-0.1943,-0.1947,-0.195,-0.1959,-0.1915,-0.1915,-0.1883,-0.1882,-0.1882]}]]